| time (UTC) | temp F | wind direction | speed MPH | gust MPH | rain 1hr in | rain 24hr in | rain mn in | humidity % | barometer mb |
| 20260502233006 | 47 | 316 | 0.0 | 0.0 | 0.00 | 0.00 | 0.00 | 45 | 1015.5 |
| 20260502232006 | 47 | 314 | 0.0 | 0.0 | 0.00 | 0.00 | 0.00 | 44 | 1015.5 |
| 20260502231006 | 47 | 313 | 0.0 | 0.0 | 0.00 | 0.00 | 0.00 | 44 | 1015.5 |
| 20260502225005 | 47 | 316 | 0.0 | 0.0 | 0.00 | 0.00 | 0.00 | 42 | 1015.6 |
| 20260502224004 | 47 | 311 | 0.0 | 0.0 | 0.00 | 0.00 | 0.00 | 43 | 1015.6 |
| 20260502223003 | 48 | 308 | 0.0 | 0.0 | 0.00 | 0.00 | 0.00 | 44 | 1015.6 |
| 20260502222002 | 48 | 268 | 0.0 | 0.0 | 0.00 | 0.00 | 0.00 | 43 | 1015.6 |
| 20260502215001 | 47 | 317 | 0.0 | 0.0 | 0.00 | 0.00 | 0.00 | 47 | 1015.6 |
| 20260502214000 | 47 | 224 | 0.0 | 0.0 | 0.00 | 0.00 | 0.00 | 47 | 1015.7 |
| 20260502213000 | 47 | 308 | 0.0 | 0.0 | 0.00 | 0.00 | 0.00 | 47 | 1015.8 |
| 20260502212000 | 47 | 35 | 0.0 | 0.0 | 0.00 | 0.00 | 0.00 | 47 | 1015.7 |
| 20260502210959 | 47 | 297 | 0.0 | 0.0 | 0.00 | 0.00 | 0.00 | 47 | 1015.8 |
| 20260502205958 | 47 | 301 | 0.0 | 2.0 | 0.00 | 0.00 | 0.00 | 46 | 1015.9 |
| 20260502204958 | 47 | 307 | 0.0 | 0.0 | 0.00 | 0.00 | 0.00 | 48 | 1016.0 |
| 20260502203957 | 46 | 296 | 0.0 | 2.0 | 0.00 | 0.00 | 0.00 | 47 | 1016.1 |
| 20260502202956 | 47 | 308 | 0.0 | 2.0 | 0.00 | 0.00 | 0.00 | 44 | 1016.1 |
| 20260502201956 | 48 | 309 | 0.0 | 0.0 | 0.00 | 0.00 | 0.00 | 44 | 1016.1 |
| 20260502200955 | 47 | 315 | 0.0 | 0.0 | 0.00 | 0.00 | 0.00 | 44 | 1016.2 |
| 20260502195954 | 47 | 264 | 0.0 | 0.0 | 0.00 | 0.00 | 0.00 | 43 | 1016.4 |
| 20260502192952 | 46 | 297 | 0.0 | 0.0 | 0.00 | 0.00 | 0.00 | 45 | 1016.6 |
| 20260502190951 | 46 | 304 | 0.0 | 10.0 | 0.00 | 0.00 | 0.00 | 44 | 1016.9 |
| 20260502184951 | 47 | 312 | 0.0 | 20.0 | 0.00 | 0.00 | 0.00 | 41 | 1017.0 |
| 20260502183951 | 46 | 316 | 0.0 | 0.0 | 0.00 | 0.00 | 0.00 | 44 | 1017.0 |
| 20260502182951 | 46 | 312 | 0.0 | 0.0 | 0.00 | 0.00 | 0.00 | 41 | 1017.1 |
| 20260502181950 | 47 | 311 | 0.0 | 0.0 | 0.00 | 0.00 | 0.00 | 44 | 1017.2 |
| 20260502180950 | 46 | 194 | 0.0 | 2.0 | 0.00 | 0.00 | 0.00 | 48 | 1017.2 |
| 20260502163947 | 45 | 316 | 0.0 | 10.0 | 0.00 | 0.01 | 0.00 | 44 | 1018.0 |
| 20260502162947 | 45 | 308 | 0.0 | 0.0 | 0.00 | 0.01 | 0.00 | 48 | 1018.0 |
| 20260502161946 | 43 | 313 | 0.0 | 0.0 | 0.00 | 0.01 | 0.00 | 48 | 1017.9 |
| 20260502160945 | 43 | 306 | 0.0 | 0.0 | 0.00 | 0.01 | 0.00 | 50 | 1017.9 |
| 20260502150942 | 43 | 294 | 0.0 | 0.0 | 0.00 | 0.01 | 0.00 | 52 | 1017.9 |
| 20260502123004 | 35 | 314 | 0.0 | 4.0 | 0.00 | 0.01 | 0.00 | 79 | 1017.9 |
| 20260502122004 | 35 | 314 | 0.0 | 0.0 | 0.00 | 0.01 | 0.00 | 81 | 1017.8 |
| 20260502121004 | 34 | 314 | 0.0 | 0.0 | 0.00 | 0.01 | 0.00 | 82 | 1017.9 |
| 20260502113004 | 32 | 310 | 0.0 | 0.0 | 0.00 | 0.01 | 0.00 | 86 | 1017.5 |
| 20260502111002 | 30 | 310 | 0.0 | 0.0 | 0.00 | 0.01 | 0.00 | 88 | 1017.3 |
| 20260502110002 | 29 | 310 | 0.0 | 0.0 | 0.00 | 0.01 | 0.00 | 87 | 1017.2 |
| 20260502105001 | 29 | 310 | 0.0 | 0.0 | 0.00 | 0.01 | 0.00 | 87 | 1017.1 |
| 20260502104000 | 30 | 310 | 0.0 | 0.0 | 0.00 | 0.01 | 0.00 | 86 | 1017.2 |
| 20260502103000 | 30 | 310 | 0.0 | 0.0 | 0.00 | 0.01 | 0.00 | 86 | 1017.2 |
| 20260502101959 | 30 | 310 | 0.0 | 0.0 | 0.00 | 0.01 | 0.00 | 86 | 1017.1 |
| 20260502100958 | 30 | 310 | 0.0 | 0.0 | 0.00 | 0.01 | 0.00 | 85 | 1017.1 |
| 20260502090955 | 31 | 310 | 0.0 | 0.0 | 0.00 | 0.01 | 0.00 | 81 | 1016.9 |
| 20260502070945 | 37 | 310 | 0.0 | 0.0 | 0.00 | 0.01 | 0.00 | 69 | 1016.4 |
| 20260502065944 | 37 | 310 | 0.0 | 0.0 | 0.00 | 0.01 | 0.00 | 69 | 1016.4 |
| 20260502064943 | 38 | 310 | 0.0 | 0.0 | 0.00 | 0.01 | 0.00 | 69 | 1016.5 |
| 20260502063943 | 38 | 310 | 0.0 | 0.0 | 0.00 | 0.01 | 0.00 | 68 | 1016.6 |
| 20260502063011 | 39 | 310 | 0.0 | 0.0 | 0.00 | 0.01 | 0.00 | 68 | 1016.6 |
| 20260502061940 | 39 | 310 | 0.0 | 0.0 | 0.00 | 0.01 | 0.00 | 68 | 1016.6 |
| 20260502061010 | 39 | 310 | 0.0 | 0.0 | 0.00 | 0.01 | 0.00 | 67 | 1016.7 |
| 20260502060009 | 39 | 310 | 0.0 | 0.0 | 0.00 | 0.01 | 0.00 | 66 | 1016.8 |
| 20260502055008 | 39 | 310 | 0.0 | 0.0 | 0.00 | 0.01 | 0.00 | 64 | 1016.8 |
| 20260502054007 | 40 | 310 | 0.0 | 0.0 | 0.00 | 0.01 | 0.00 | 64 | 1016.8 |
| 20260502053006 | 40 | 310 | 0.0 | 0.0 | 0.00 | 0.01 | 0.00 | 64 | 1016.8 |
| 20260502052005 | 40 | 310 | 0.0 | 0.0 | 0.00 | 0.01 | 0.00 | 64 | 1016.8 |
| 20260502051004 | 40 | 310 | 0.0 | 0.0 | 0.00 | 0.01 | 0.00 | 64 | 1016.8 |
| 20260502044001 | 40 | 308 | 0.0 | 0.0 | 0.00 | 0.01 | 0.00 | 66 | 1016.6 |
| 20260502043001 | 40 | 306 | 0.0 | 2.0 | 0.00 | 0.01 | 0.00 | 66 | 1016.5 |
| 20260502041959 | 40 | 306 | 0.0 | 2.0 | 0.00 | 0.01 | 0.00 | 66 | 1016.3 |
| 20260502040959 | 40 | 312 | 0.0 | 0.0 | 0.00 | 0.01 | 0.00 | 68 | 1016.4 |
| 20260502035958 | 40 | 312 | 0.0 | 0.0 | 0.00 | 0.02 | 0.00 | 69 | 1016.3 |
| 20260502034957 | 40 | 308 | 0.0 | 0.0 | 0.00 | 0.02 | 0.02 | 71 | 1016.2 |
| 20260502033956 | 39 | 308 | 0.0 | 0.0 | 0.00 | 0.02 | 0.02 | 73 | 1016.1 |
| 20260502032955 | 39 | 296 | 0.0 | 0.0 | 0.00 | 0.02 | 0.02 | 76 | 1015.9 |
| 20260502031954 | 38 | 312 | 0.0 | 0.0 | 0.00 | 0.03 | 0.02 | 78 | 1015.9 |
| 20260502030953 | 38 | 315 | 0.0 | 0.0 | 0.00 | 0.04 | 0.02 | 79 | 1015.9 |
| 20260502025952 | 38 | 315 | 0.0 | 0.0 | 0.00 | 0.04 | 0.02 | 79 | 1015.9 |
| 20260502024951 | 38 | 315 | 0.0 | 0.0 | 0.00 | 0.05 | 0.02 | 78 | 1015.9 |
| 20260502023951 | 38 | 315 | 0.0 | 0.0 | 0.00 | 0.05 | 0.02 | 76 | 1015.9 |
| 20260502021949 | 39 | 315 | 0.0 | 0.0 | 0.00 | 0.06 | 0.02 | 74 | 1015.9 |
| 20260502020948 | 40 | 315 | 0.0 | 0.0 | 0.00 | 0.07 | 0.02 | 72 | 1015.8 |
| 20260502015946 | 40 | 315 | 0.0 | 0.0 | 0.00 | 0.08 | 0.02 | 71 | 1015.6 |
| 20260502012945 | 41 | 315 | 0.0 | 0.0 | 0.00 | 0.08 | 0.02 | 68 | 1015.3 |
| 20260502011944 | 41 | 315 | 0.0 | 0.0 | 0.00 | 0.08 | 0.02 | 67 | 1015.3 |
| 20260502010943 | 42 | 314 | 0.0 | 0.0 | 0.00 | 0.08 | 0.02 | 66 | 1015.3 |
| 20260502005942 | 42 | 317 | 0.0 | 0.0 | 0.00 | 0.08 | 0.02 | 64 | 1015.2 |
| 20260502004011 | 43 | 313 | 0.0 | 0.0 | 0.00 | 0.08 | 0.02 | 62 | 1015.1 |
| 20260502002010 | 43 | 310 | 0.0 | 0.0 | 0.00 | 0.08 | 0.02 | 64 | 1015.0 |
| 20260502001010 | 43 | 310 | 0.0 | 0.0 | 0.00 | 0.08 | 0.02 | 65 | 1014.9 |
| 20260502000009 | 43 | 308 | 0.0 | 0.0 | 0.00 | 0.08 | 0.02 | 65 | 1014.9 |
| 20260501235008 | 43 | 319 | 0.0 | 0.0 | 0.00 | 0.08 | 0.02 | 64 | 1014.8 |
| 20260501234008 | 44 | 313 | 0.0 | 0.0 | 0.00 | 0.08 | 0.02 | 65 | 1014.8 |